Regional Weather Roundup
Issued by NWS Goodland, KS

Home | Current Version | Previous Version | Graphics & Text | Print | Product List | Glossary On
Versions: 1 2 3 4 5 6 7 8 9 10 11 12 13 14 15 16 17 18 19 20 21 22 23 24 25 26 27 28 29 30 31 32 33 34 35 36 37 38 39 40 41 42 43 44 45 46 47 48 49 50
000
ASUS43 KGLD 111859
RWRGLD

GOODLAND FORECAST AREA HOURLY WEATHER ROUNDUP
NATIONAL WEATHER SERVICE GOODLAND KS
100 PM MDT FRI JUL 11 2014

...OFFICIAL OBSERVATIONS...

CITY           SKY/WX    TMP DP  RH WIND       PRES   REMARKS
GOODLAND KS    SUNNY     93  58  30 S10       30.00F
HILL CITY KS   SUNNY     99  58  25 S17G23    29.95F
IMPERIAL NEB   MOSUNNY   88  66  48 NE12      30.01F
MCCOOK NEB     SUNNY     92  63  38 E9        29.97F
AKRON CO       SUNNY     87  57  35 N10       30.09F
BURLINGTON CO  SUNNY     90  58  33 SW10      30.05F
LIMON CO       SUNNY     88  56  33 NE16      30.13F
$$

...UNOFFICIAL OBSERVATIONS...

CITY           SKY/WX    TMP DP  RH WIND       PRES   REMARKS
COLBY KS       SUNNY     97  61  30 S13G24    29.99F
GOVE KS          N/A     94  32  11 CALM        N/A
LENORA KS        N/A     97  32  10 MISG        N/A
NORTON KS      SUNNY     97  54  23 S12G17    29.96S
SHARON SPRINGS   N/A     98  53  21 SW23G31     N/A
YUMA CO          N/A     86  66  50 NE9         N/A
$$


USA.gov is the U.S. government's official web portal to all federal, state and local government web resources and services.